Change the Weather History Date:

Saturday, March 1, 2014

  Actual Average (KMEM) Record (KMEM)
Temperature  
Mean Temperature 57 °F 50 °F  
Max Temperature 68 °F 59 °F 79 °F (1997)
Min Temperature 46 °F 40 °F 17 °F (1890)
Degree Days  
Heating Degree Days 8 16  
Month to date heating degree days 16  
Since 1 July heating degree days 2466  
Cooling Degree Days 0 0  
Month to date cooling degree days 0  
Year to date cooling degree days 3  
Growing Degree Days 7 (Base 50)    
Moisture  
Dew Point 50 °F    
Average Humidity 76    
Maximum Humidity 94    
Minimum Humidity 63    
Precipitation  
Precipitation 0.00 in 0.15 in 2.87 in (1997)
Month to date precipitation 0.15  
Year to date precipitation 8.52  
Snow  
Snow 0.00 in 0.00 in 0.80 in (1980)
Month to date snowfall 0.0  
Since 1 July snowfall 3.4  
Snow Depth -    
Sea Level Pressure  
Sea Level Pressure 30.07 in    
Wind  
Wind Speed 6 mph (SE)    
Max Wind Speed 13 mph    
Max Gust Speed 17 mph    
Visibility 10 miles    
Events      
T = Trace of Precipitation, MM = Missing Value Source: NWS Daily Summary

Daily Weather History Graph

Daily Weather History Graph

Search for Another Location

Airport or City:

Trip Planner

Search our weather history database for the weather conditions in past years. The results will help you decide how hot, cold, wet, or windy it might be!

Date:

Astronomy

Mar. 01, 2014 Rise Set
Actual Time 6:30 AM CST 5:58 PM CST
Civil Twilight 6:05 AM CST 6:23 PM CST
Nautical Twilight 5:36 AM CST 6:52 PM CST
Astronomical Twilight 5:07 AM CST 7:21 PM CST
Moon 6:27 AM CST (3/1) 6:41 PM CST (3/1)
Length of Visible Light 12h 17m
Length of Day
11h 27m
New Moon, 0% of the Moon is Illuminated
Mar 1
New Moon
Mar 8
First Quarter
Mar 16
Full
Mar 23
Last Quarter
Mar 30
New

Hourly Weather History & Observations

Time (CST) Temp. Windchill Dew Point Humidity Pressure Visibility Wind Dir Wind Speed Gust Speed Precip Events Conditions
12:15 AM 46.4 °F 42.9 °F 39.2 °F 76% 30.03 in 10.0 mi ESE 6.9 mph - N/A   Unknown
12:35 AM 46.4 °F 44.3 °F 39.2 °F 76% 30.03 in 10.0 mi ESE 4.6 mph - N/A   Unknown
12:55 AM 46.4 °F 43.5 °F 39.2 °F 76% 30.03 in 10.0 mi ESE 5.8 mph - N/A   Unknown
1:15 AM 46.4 °F 43.5 °F 39.2 °F 76% 30.04 in 10.0 mi ESE 5.8 mph - N/A   Unknown
1:35 AM 46.4 °F 45.2 °F 39.2 °F 76% 30.04 in 10.0 mi ESE 3.5 mph - N/A   Unknown
1:55 AM 46.4 °F 44.3 °F 39.2 °F 76% 30.04 in 10.0 mi ESE 4.6 mph - N/A   Unknown
2:15 AM 46.4 °F 44.3 °F 39.2 °F 76% 30.04 in 10.0 mi ESE 4.6 mph - N/A   Unknown
2:35 AM 46.4 °F 45.2 °F 39.2 °F 76% 30.05 in 10.0 mi ESE 3.5 mph - N/A   Unknown
2:55 AM 46.4 °F - 39.2 °F 76% 30.05 in 10.0 mi Calm Calm - N/A   Unknown
3:15 AM 46.4 °F 44.3 °F 39.2 °F 76% 30.05 in 10.0 mi SE 4.6 mph - N/A   Unknown
3:35 AM 46.4 °F 45.2 °F 39.2 °F 76% 30.06 in 10.0 mi SE 3.5 mph - N/A   Unknown
3:55 AM 46.4 °F - 39.2 °F 76% 30.06 in 10.0 mi Calm Calm - N/A   Unknown
4:15 AM 46.4 °F 44.3 °F 41.0 °F 81% 30.06 in 10.0 mi ESE 4.6 mph - N/A   Unknown
4:35 AM 46.4 °F 43.5 °F 39.2 °F 76% 30.06 in 10.0 mi ESE 5.8 mph - N/A   Unknown
4:55 AM 46.4 °F 44.3 °F 39.2 °F 76% 30.07 in 10.0 mi ESE 4.6 mph - N/A   Unknown
5:15 AM 46.4 °F 44.3 °F 39.2 °F 76% 30.08 in 10.0 mi ESE 4.6 mph - N/A   Unknown
5:35 AM 46.4 °F 44.3 °F 41.0 °F 81% 30.09 in 10.0 mi SE 4.6 mph - N/A   Unknown
5:55 AM 46.4 °F 43.5 °F 41.0 °F 81% 30.09 in 10.0 mi SE 5.8 mph - N/A   Unknown
6:15 AM 48.2 °F - 41.0 °F 76% 30.10 in 10.0 mi SE 4.6 mph - N/A   Unknown
6:35 AM 48.2 °F - 41.0 °F 76% 30.10 in 10.0 mi ESE 5.8 mph - N/A   Unknown
6:55 AM 48.2 °F - 41.0 °F 76% 30.11 in 10.0 mi SE 5.8 mph - N/A   Unknown
7:15 AM 48.2 °F - 41.0 °F 76% 30.11 in 10.0 mi ESE 6.9 mph - N/A   Unknown
7:35 AM 48.2 °F - 41.0 °F 76% 30.12 in 10.0 mi ESE 5.8 mph - N/A   Unknown
7:55 AM 50.0 °F - 42.8 °F 76% 30.12 in 10.0 mi SE 6.9 mph - N/A   Unknown
8:15 AM 51.8 °F - 44.6 °F 76% 30.13 in 10.0 mi SSE 5.8 mph - N/A   Unknown
8:35 AM 53.6 °F - 44.6 °F 72% 30.13 in 10.0 mi SSE 6.9 mph - N/A   Unknown
8:55 AM 53.6 °F - 44.6 °F 72% 30.13 in 10.0 mi SSE 8.1 mph - N/A   Unknown
9:15 AM 55.4 °F - 46.4 °F 72% 30.14 in 10.0 mi SSE 9.2 mph - N/A   Unknown
9:35 AM 55.4 °F - 46.4 °F 72% 30.13 in 10.0 mi SSE 9.2 mph - N/A   Unknown
9:55 AM 59.0 °F - 48.2 °F 67% 30.13 in 10.0 mi SSE 9.2 mph - N/A   Unknown
10:15 AM 59.0 °F - 50.0 °F 72% 30.13 in 10.0 mi SSE 10.4 mph - N/A   Unknown
10:35 AM 62.6 °F - 50.0 °F 63% 30.13 in 10.0 mi SSE 12.7 mph - N/A   Unknown
10:55 AM 62.6 °F - 51.8 °F 68% 30.12 in 10.0 mi SSE 12.7 mph - N/A   Unknown
11:15 AM 62.6 °F - 53.6 °F 72% 30.11 in 10.0 mi SSE 9.2 mph - N/A   Unknown
11:35 AM 64.4 °F - 53.6 °F 68% 30.11 in 10.0 mi SSE 10.4 mph - N/A   Unknown
11:55 AM 64.4 °F - 55.4 °F 73% 30.10 in 10.0 mi SSE 9.2 mph - N/A   Unknown
12:15 PM 66.2 °F - 55.4 °F 68% 30.09 in 10.0 mi SSE 10.4 mph - N/A   Unknown
12:35 PM 68.0 °F - 55.4 °F 64% 30.09 in 10.0 mi SSE 10.4 mph - N/A   Unknown
12:55 PM 68.0 °F - 57.2 °F 68% 30.08 in 10.0 mi SSE 11.5 mph 17.3 mph N/A   Unknown
1:15 PM 68.0 °F - 57.2 °F 68% 30.07 in 10.0 mi South 8.1 mph - N/A   Unknown
1:35 PM 68.0 °F - 57.2 °F 68% 30.07 in 10.0 mi SSE 8.1 mph 17.3 mph N/A   Unknown
1:55 PM 68.0 °F - 57.2 °F 68% 30.07 in 10.0 mi SSE 8.1 mph - N/A   Unknown
2:15 PM 68.0 °F - 57.2 °F 68% 30.07 in 10.0 mi SSE 8.1 mph - N/A   Unknown
2:35 PM 68.0 °F - 57.2 °F 68% 30.07 in 10.0 mi South 6.9 mph - N/A   Unknown
2:55 PM 68.0 °F - 57.2 °F 68% 30.06 in 10.0 mi SSE 6.9 mph - N/A   Unknown
3:15 PM 68.0 °F - 57.2 °F 68% 30.06 in 10.0 mi SSE 8.1 mph - N/A   Unknown
3:55 PM 68.0 °F - 57.2 °F 68% 30.05 in 10.0 mi ESE 6.9 mph - N/A   Unknown
4:15 PM 68.0 °F - 57.2 °F 68% 30.05 in 10.0 mi ESE 8.1 mph - N/A   Unknown
4:35 PM 68.0 °F - 57.2 °F 68% 30.04 in 10.0 mi ESE 6.9 mph - N/A   Unknown
4:55 PM 66.2 °F - 57.2 °F 73% 30.04 in 10.0 mi SE 6.9 mph - N/A   Unknown
5:15 PM 66.2 °F - 59.0 °F 78% 30.05 in 10.0 mi ESE 4.6 mph - N/A   Unknown
5:35 PM 66.2 °F - 59.0 °F 78% 30.04 in 10.0 mi SE 6.9 mph - N/A   Unknown
5:55 PM 66.2 °F - 59.0 °F 78% 30.04 in 10.0 mi SE 5.8 mph - N/A   Unknown
6:15 PM 64.4 °F - 59.0 °F 83% 30.05 in 10.0 mi SE 4.6 mph - N/A   Unknown
6:35 PM 64.4 °F - 59.0 °F 83% 30.05 in 10.0 mi Calm Calm - N/A   Unknown
6:55 PM 62.6 °F - 59.0 °F 88% 30.05 in 10.0 mi ESE 5.8 mph - N/A   Unknown
7:15 PM 64.4 °F - 59.0 °F 83% 30.05 in 10.0 mi ESE 5.8 mph - N/A   Unknown
7:35 PM 62.6 °F - 57.2 °F 82% 30.06 in 10.0 mi Calm Calm - N/A   Unknown
7:55 PM 60.8 °F - 57.2 °F 88% 30.06 in 10.0 mi ESE 5.8 mph - N/A   Unknown
8:15 PM 60.8 °F - 57.2 °F 88% 30.06 in 10.0 mi ESE 5.8 mph - N/A   Unknown
8:35 PM 62.6 °F - 57.2 °F 82% 30.06 in 10.0 mi SE 5.8 mph - N/A   Unknown
8:55 PM 62.6 °F - 57.2 °F 82% 30.06 in 10.0 mi ESE 6.9 mph - N/A   Unknown
9:15 PM 62.6 °F - 57.2 °F 82% 30.05 in 10.0 mi SE 6.9 mph - N/A   Unknown
9:35 PM 60.8 °F - 57.2 °F 88% 30.05 in 10.0 mi SE 5.8 mph - N/A   Unknown
9:55 PM 60.8 °F - 57.2 °F 88% 30.05 in 10.0 mi SE 8.1 mph - N/A   Unknown
10:15 PM 59.0 °F - 57.2 °F 94% 30.04 in 10.0 mi ESE 8.1 mph - N/A   Unknown
10:35 PM 60.8 °F - 57.2 °F 88% 30.04 in 10.0 mi SE 5.8 mph - N/A   Unknown
10:55 PM 60.8 °F - 57.2 °F 88% 30.04 in 10.0 mi SE 6.9 mph - N/A   Unknown
11:15 PM 59.0 °F - 55.4 °F 88% 30.04 in 10.0 mi SE 3.5 mph - N/A   Unknown
11:35 PM 59.0 °F - 55.4 °F 88% 30.04 in 10.0 mi Calm Calm - N/A   Unknown
11:55 PM 59.0 °F - 55.4 °F 88% 30.04 in 10.0 mi SSE 3.5 mph - N/A   Unknown